Showing default

IRIDE-MS2-HEO-12, 68984

Orbit data source: Space-Track

IRIDE-MS2-HEO-12, 68984 is an Italian payload satellite in SSO that was launched on Sun, 03 May 2026 UTC via an FALCON 9 launch vehicle from the Air Force Western Test Range (AFWTR). Payload-class satellites include a variety of spacecraft equipped with specific instruments for various scientific and technological missions. These include communications satellites like Starlink; space stations such as the ISS; scientific satellites like the Hubble; Earth observation satellites from companies like Planet Labs, Umbra, and HawkEye 360; GPS; miniature CubeSats for education and research; and military/defense satellites.

Loading next visibility...
Identifier
68984, 2026-100E
Orbit
SSO
Country
Flag of ITIT
Related business
Manufacturer
ArgoTec
Mission
Operational Civil Imaging
Bus & Motor
HAWK, Unknown motor
Mass
65 kg wet, 65 kg dry
Launch date (UTC)
2026-05-03 (5 months ago)
Launch vehicle
FALCON 9
Launch site
Air Force Western Test Range (AFWTR)
Object type
Payload
Rocket body
Debris
Shape & HBR
Box + 2 Pan, 3.0 m
Radar Cross Section
0.683 m², Medium (>0.1 m² and < 1m²)

Expand to show TLE details & history
Last TLE update: 15 hours ago

TLE from 15 hours ago
0 IRIDE-MS2-HEO-12
1 68984U 26100E   26265.93748528  .00000919  00000-0  98835-4 0  9997
2 68984  97.7202 161.3115 0003829 161.8561 198.2795 14.90857707 21262
Epoch: 2026-09-22T22:29Z
TLE epoch observation values (Epoch: 2026-09-22T22:29:58.728Z)
Latitude
0.00003°
Longitude
-177.979°
Altitude
600.837 km
Speed
7.558 km/s
True Right ascension
10h 45m 14s
True Declination
0° 00' 00"
Sunlit
Object was in daylight at epoch
Visualization orbit readout
Latitude
Unknown
Longitude
Unknown
Altitude
Unknown
Speed
Unknown
Apparent Right ascension
Unknown
Apparent Declination
Unknown
Sunlit
N/A
Visualization observer readout
Local Sidereal Time
06:29:16
Azimuth
Unknown
Elevation
Unknown
Doppler factor
Unknown
Orbital elements
Apogee altitude
594.947 km
Perigee altitude
589.609 km
Semi-major axis
6,970.415 km
Eccentricity
0.00038
Inclination
97.7202°
RAAN
161.3115°
Arg. of periapsis
161.8561°
True anomaly
198.26574°
Mean anomaly
198.2795°
Eccentric anomaly
198.27262°
Mean motion
3.72954 °/min
Orbital period
96.53 mins
BSTAR
0.000098835
Loading maneuver chart data...
Computing Atmospheric mass density...
Loading historical data...
Loading historical data...
Loading historical data...
Loading historical data...
Loading historical data...
Loading historical data...
Loading historical data...

Documentation

Showing up to 5 results
|